GW5996 Weather Reports


time (UTC)temp
C
wind
direction
speed
KPH
gust
KPH
rain 1hr
cm
rain 24hr
cm
rain mn
cm
humidity
%
barometer
mb
20260507201415 9 239 12.9 16.1 0.00 0.81 0.81 99 1000.8
20260507200912 9 245 14.5 16.1 0.00 0.81 0.81 99 1001.1
20260507200408 9 242 9.7 16.1 0.00 0.81 0.81 99 1001.1
20260507195904 10 237 14.5 16.1 0.00 0.81 0.81 99 1000.9
20260507195402 10 243 9.7 12.9 0.00 0.81 0.81 99 1000.9
20260507194859 10 247 12.9 12.9 0.00 0.81 0.81 99 1000.8
20260507194355 10 240 12.9 17.7 0.00 0.81 0.81 99 1001.1
20260507193851 10 237 11.3 14.5 0.00 0.81 0.81 99 1000.8
20260507193349 10 229 11.3 11.3 0.00 0.81 0.81 99 1000.9
20260507192845 10 240 9.7 11.3 0.00 0.81 0.81 99 1000.8
20260507192341 10 228 9.7 11.3 0.00 0.81 0.81 99 1000.7
20260507191838 10 259 6.4 9.7 0.00 0.81 0.81 99 1000.7
20260507191334 10 245 9.7 12.9 0.00 0.81 0.81 99 1001.0
20260507190831 10 267 11.3 17.7 0.00 0.81 0.81 99 1000.8
20260507190329 10 244 9.7 17.7 0.00 0.81 0.81 98 1000.8
20260507185828 11 244 14.5 22.5 0.00 0.81 0.81 98 1000.8
20260507185324 12 216 12.9 20.9 0.00 0.81 0.81 99 1000.5
20260507184822 12 214 8.0 16.1 0.00 0.81 0.81 99 1000.4
20260507184320 12 186 14.5 20.9 0.00 0.81 0.81 99 1000.7
20260507183816 12 203 16.1 24.1 0.00 0.81 0.81 99 1000.7
20260507183313 12 170 14.5 25.7 0.00 0.81 0.81 99 1000.6
20260507182811 12 183 22.5 24.1 0.00 0.81 0.81 99 1000.1
20260507182307 11 175 22.5 25.7 0.00 0.81 0.81 99 1000.3
20260507181802 11 171 16.1 25.7 0.00 0.81 0.81 99 999.7
20260507181259 11 147 14.5 25.7 0.00 0.81 0.81 99 999.5
20260507180755 11 166 20.9 29.0 0.00 0.81 0.81 99 1000.7
20260507180253 11 170 22.5 24.1 0.13 0.81 0.81 99 1000.4
20260507175748 11 179 17.7 25.7 0.13 0.81 0.81 99 1001.1
20260507175245 11 196 16.1 25.7 0.00 0.79 0.79 99 1001.7
20260507174742 11 174 27.4 35.4 0.00 0.79 0.79 99 1001.3
20260507174240 11 175 19.3 30.6 0.05 0.79 0.79 99 1000.8
20260507173738 11 175 25.7 35.4 0.05 0.79 0.79 99 1000.8
20260507173234 11 165 19.3 29.0 0.05 0.79 0.79 99 1000.2
20260507172731 11 163 14.5 29.0 0.13 0.79 0.79 99 1000.0
20260507172228 11 151 20.9 29.0 0.18 0.76 0.76 99 1000.5
20260507171728 11 171 20.9 25.7 0.13 0.74 0.74 99 1001.0
20260507171226 11 172 16.1 32.2 0.13 0.74 0.74 99 1000.8
20260507170722 11 170 20.9 25.7 0.05 0.71 0.71 99 1000.9
20260507170219 11 184 20.9 29.0 0.00 0.71 0.71 99 1001.5
20260507165715 12 168 22.5 29.0 0.05 0.71 0.71 98 1001.3
20260507165211 12 178 22.5 29.0 0.05 0.71 0.71 98 1001.7
20260507164707 12 173 24.1 32.2 0.00 0.71 0.71 98 1001.5
20260507164205 12 189 25.7 29.0 0.00 0.71 0.71 98 1001.1
20260507163701 12 171 16.1 27.4 0.18 0.71 0.71 98 1000.9
20260507163159 12 176 22.5 27.4 0.36 0.69 0.69 98 1001.2
20260507162655 12 170 29.0 29.0 0.43 0.66 0.66 98 1001.3
20260507162151 12 196 12.9 22.5 0.36 0.64 0.64 98 1001.9
20260507161648 12 174 16.1 30.6 0.36 0.61 0.61 98 1002.0
20260507161144 12 166 20.9 25.7 0.30 0.56 0.56 98 1001.9
20260507160641 12 166 20.9 25.7 0.18 0.53 0.53 98 1002.1
20260507160138 12 166 24.1 27.4 0.13 0.51 0.51 98 1001.6
20260507155633 12 193 11.3 24.1 0.13 0.51 0.51 98 1001.8
20260507155130 12 190 19.3 25.7 0.13 0.48 0.48 98 1001.8
20260507154626 12 186 17.7 25.7 0.13 0.48 0.48 98 1001.9
20260507154124 12 192 19.3 27.4 0.13 0.46 0.46 98 1002.4
20260507153620 12 196 14.5 22.5 0.18 0.46 0.46 98 1002.5
20260507153117 12 194 17.7 32.2 0.30 0.46 0.46 97 1003.0
20260507152613 11 198 14.5 33.8 0.36 0.43 0.43 97 1003.3
20260507152109 11 221 14.5 27.4 0.53 0.41 0.41 97 1003.1
20260507151605 11 209 19.3 27.4 0.61 0.36 0.36 97 1003.4
20260507151103 11 207 11.3 27.4 0.71 0.30 0.30 96 1003.0
20260507150600 11 194 11.3 30.6 0.89 0.25 0.25 95 1003.5
20260507150056 12 216 19.3 27.4 0.61 0.15 0.15 94 1003.4
20260507145551 12 223 17.7 25.7 0.36 0.08 0.08 93 1003.0
20260507145050 12 212 14.5 27.4 0.18 0.05 0.05 91 1002.8
20260507144546 13 202 22.5 25.7 0.00 0.03 0.03 90 1002.7
20260507144044 13 208 11.3 25.7 0.00 0.03 0.03 89 1002.9
20260507143540 13 213 24.1 32.2 0.00 0.03 0.03 89 1002.8
20260507143038 13 201 32.2 32.2 0.00 0.03 0.03 89 1003.1
20260507142533 13 201 20.9 24.1 0.00 0.03 0.03 89 1002.7
20260507142030 13 196 16.1 27.4 0.00 0.03 0.03 89 1002.9
20260507141526 13 203 16.1 24.1 0.00 0.03 0.03 88 1002.9
20260507141023 13 195 17.7 30.6 0.00 0.03 0.03 88 1002.7
20260507140520 14 177 29.0 38.6 0.00 0.03 0.03 88 1002.4
20260507140018 13 181 22.5 35.4 0.00 0.03 0.03 89 1002.3
20260507135514 13 168 37.0 38.6 0.00 0.03 0.03 89 1002.4
20260507135011 13 183 24.1 38.6 0.00 0.03 0.03 89 1002.3
20260507134508 13 174 27.4 37.0 0.00 0.03 0.03 89 1002.7
20260507134003 13 175 17.7 40.2 0.00 0.03 0.03 89 1002.5
20260507133459 13 177 22.5 41.8 0.00 0.03 0.03 89 1002.8
20260507132958 13 175 29.0 46.7 0.00 0.03 0.03 89 1003.0
20260507132454 13 183 38.6 48.3 0.00 0.03 0.03 89 1002.9
20260507131951 13 173 37.0 49.9 0.00 0.03 0.03 89 1003.1
20260507131448 13 183 30.6 48.3 0.00 0.03 0.03 90 1002.8
20260507130944 13 176 35.4 43.5 0.00 0.03 0.03 90 1003.0
20260507130441 13 179 29.0 40.2 0.00 0.03 0.03 89 1003.3
20260507125940 13 184 30.6 45.1 0.00 0.03 0.03 89 1003.4
20260507125438 13 180 35.4 45.1 0.00 0.03 0.03 89 1003.0
20260507124935 13 187 30.6 43.5 0.00 0.03 0.03 89 1003.4
20260507124431 13 195 35.4 51.5 0.00 0.03 0.03 89 1003.4
20260507123930 13 181 32.2 46.7 0.00 0.03 0.03 90 1003.5
20260507123427 13 181 37.0 41.8 0.00 0.03 0.03 89 1003.6
20260507122923 13 176 27.4 48.3 0.00 0.03 0.03 89 1003.3
20260507122418 13 166 35.4 43.5 0.00 0.03 0.03 90 1003.2
20260507121915 13 203 38.6 51.5 0.00 0.03 0.03 90 1003.5
20260507121410 13 187 25.7 53.1 0.00 0.03 0.03 90 1003.3
20260507120907 13 192 30.6 49.9 0.00 0.03 0.03 90 1003.5
20260507120403 13 185 29.0 45.1 0.00 0.03 0.03 90 1003.4
20260507115900 13 175 32.2 125.5 0.00 0.03 0.03 90 1003.5
20260507115356 12 198 24.1 35.4 0.00 0.03 0.03 90 1003.5
20260507114851 12 180 29.0 37.0 0.00 0.03 0.03 89 1003.6
20260507114349 12 189 16.1 37.0 0.00 0.03 0.03 89 1003.7
20260507113846 12 188 27.4 40.2 0.00 0.03 0.03 89 1003.5
20260507113343 12 189 29.0 35.4 0.00 0.03 0.03 89 1004.0
20260507112840 12 176 35.4 43.5 0.00 0.03 0.03 89 1003.9
20260507112337 12 190 27.4 48.3 0.00 0.03 0.03 89 1003.7
20260507111836 12 181 19.3 41.8 0.00 0.03 0.03 88 1003.7
20260507111332 12 165 25.7 45.1 0.00 0.03 0.03 88 1003.6
20260507110828 12 175 27.4 40.2 0.00 0.03 0.03 88 1003.8
20260507110324 12 167 29.0 45.1 0.00 0.03 0.03 87 1004.0
20260507105821 12 184 27.4 48.3 0.00 0.03 0.03 87 1003.9
20260507105318 12 168 25.7 45.1 0.00 0.03 0.03 87 1003.8
20260507104815 12 180 40.2 41.8 0.00 0.03 0.03 87 1004.0
20260507104311 12 183 24.1 41.8 0.00 0.03 0.03 87 1004.1
20260507103807 12 329 19.3 49.9 0.00 0.03 0.03 85 1004.2
20260507103303 12 176 48.3 57.9 0.00 0.03 0.03 84 1004.3
20260507102800 12 184 38.6 57.9 0.00 0.03 0.03 83 1004.3
20260507102257 13 176 41.8 43.5 0.00 0.03 0.03 83 1004.5
20260507101754 13 178 32.2 49.9 0.00 0.03 0.03 82 1004.3
20260507101253 12 177 40.2 45.1 0.00 0.03 0.03 83 1004.8
20260507100751 12 178 43.5 43.5 0.00 0.03 0.03 84 1004.6
20260507100249 12 184 27.4 32.2 0.00 0.03 0.03 84 1004.8
20260507095747 12 203 32.2 43.5 0.00 0.03 0.03 84 1004.8
20260507095243 12 172 22.5 46.7 0.00 0.03 0.03 83 1004.6
20260507094740 12 182 25.7 45.1 0.00 0.03 0.03 83 1004.6
20260507094237 12 161 24.1 45.1 0.00 0.03 0.03 83 1004.7
20260507093734 12 164 43.5 45.1 0.00 0.03 0.03 83 1004.6
20260507093232 12 160 33.8 40.2 0.00 0.03 0.03 82 1004.8
20260507092730 12 165 19.3 41.8 0.00 0.03 0.03 81 1004.8
20260507092226 12 165 27.4 45.1 0.00 0.03 0.03 81 1004.9
20260507091722 12 168 33.8 43.5 0.00 0.03 0.03 81 1004.8
20260507091219 12 172 32.2 51.5 0.00 0.03 0.03 80 1005.0
20260507090719 12 170 29.0 43.5 0.00 0.03 0.03 80 1004.9
20260507090216 12 167 32.2 41.8 0.00 0.03 0.03 80 1005.0
20260507085713 12 170 29.0 40.2 0.00 0.03 0.03 81 1005.0
20260507085210 12 163 38.6 40.2 0.00 0.03 0.03 80 1005.2
20260507084707 12 150 29.0 48.3 0.00 0.03 0.03 80 1005.0
20260507084203 12 152 24.1 43.5 0.00 0.03 0.03 80 1005.1
20260507083701 12 157 22.5 43.5 0.00 0.03 0.03 79 1005.5
20260507083157 12 166 35.4 41.8 0.00 0.03 0.03 80 1005.2
20260507082653 12 157 25.7 40.2 0.00 0.03 0.03 80 1005.8
20260507082149 12 160 35.4 45.1 0.00 0.03 0.03 81 1006.0
20260507081647 12 159 22.5 27.4 0.00 0.03 0.03 80 1006.0
20260507081143 12 161 22.5 29.0 0.00 0.03 0.03 80 1006.1
20260507080639 12 165 20.9 32.2 0.00 0.03 0.03 80 1006.3
20260507080136 12 173 20.9 33.8 0.00 0.03 0.03 79 1006.6
20260507075631 12 172 27.4 29.0 0.00 0.03 0.03 80 1006.6
20260507075127 12 164 22.5 29.0 0.00 0.03 0.03 81 1006.8
20260507074624 12 156 24.1 27.4 0.00 0.03 0.03 80 1006.7
20260507074123 12 179 20.9 35.4 0.00 0.03 0.03 81 1006.8
20260507073618 12 161 25.7 27.4 0.00 0.03 0.03 82 1007.0
20260507073115 12 160 19.3 27.4 0.00 0.03 0.03 82 1007.2
20260507072613 12 164 25.7 29.0 0.00 0.03 0.03 83 1007.6
20260507072109 12 168 14.5 30.6 0.00 0.03 0.03 83 1007.5
20260507071607 12 169 20.9 27.4 0.00 0.03 0.03 83 1007.6
20260507071103 12 152 16.1 25.7 0.00 0.03 0.03 84 1007.4
20260507070600 12 162 20.9 30.6 0.00 0.03 0.03 83 1007.4
20260507070057 12 156 27.4 32.2 0.00 0.03 0.03 83 1007.4
20260507065554 12 160 17.7 33.8 0.05 0.03 0.03 84 1007.5
20260507065051 12 161 37.0 41.8 0.13 0.03 0.03 83 1007.2
20260507064549 12 165 35.4 54.7 0.05 0.00 0.00 81 1008.2
20260507064047 12 180 25.7 43.5 0.00 0.00 0.00 79 1008.3
20260507063544 12 173 33.8 41.8 0.00 0.00 0.00 77 1008.5
20260507063041 12 180 32.2 41.8 0.00 0.00 0.00 77 1008.5
20260507062538 13 170 24.1 37.0 0.00 0.00 0.00 77 1008.2
20260507062035 13 162 25.7 38.6 0.00 0.00 0.00 76 1008.4
20260507061533 13 179 29.0 41.8 0.00 0.00 0.00 76 1009.0
20260507061031 13 174 32.2 54.7 0.00 0.00 0.00 76 1008.6
20260507060529 13 173 29.0 49.9 0.00 0.00 0.00 76 1009.0
20260507060025 13 193 30.6 41.8 0.00 0.00 0.00 77 1008.9
20260507055525 13 164 30.6 45.1 0.00 0.00 0.00 76 1008.8
20260507055022 13 173 29.0 43.5 0.00 0.00 0.00 76 1008.9
20260507054518 13 173 29.0 43.5 0.00 0.00 0.00 76 1009.2
20260507054015 13 179 38.6 46.7 0.00 0.00 0.00 77 1009.3
20260507053513 13 185 27.4 49.9 0.00 0.00 0.00 76 1009.3
20260507053012 13 178 35.4 48.3 0.00 0.00 0.00 77 1009.3
20260507052509 12 172 30.6 41.8 0.00 0.00 0.00 77 1009.4
20260507052005 12 171 35.4 41.8 0.00 0.00 0.00 78 1009.2
20260507051503 12 167 20.9 37.0 0.00 0.00 0.00 77 1009.3
20260507051000 12 172 24.1 40.2 0.00 0.00 0.00 77 1009.5
20260507050456 12 170 33.8 38.6 0.00 0.00 0.00 77 1010.3
20260507045953 12 179 38.6 38.6 0.00 0.00 0.00 77 1010.2
20260507045449 12 188 27.4 45.1 0.00 0.00 0.00 78 1010.2
20260507044947 12 192 32.2 37.0 0.00 0.00 0.00 78 1010.5
20260507044443 12 191 24.1 35.4 0.00 0.00 0.00 78 1010.6
20260507043940 12 180 24.1 45.1 0.00 0.00 0.00 77 1010.4
20260507043436 13 173 32.2 40.2 0.00 0.00 0.00 76 1010.7
20260507042932 13 194 29.0 46.7 0.00 0.00 0.00 77 1010.5
20260507042429 13 180 37.0 41.8 0.00 0.00 0.00 77 1010.6
20260507041925 13 156 33.8 41.8 0.00 0.00 0.00 76 1010.8
20260507041422 13 186 22.5 40.2 0.00 0.00 0.00 77 1010.8
20260507040919 13 190 33.8 49.9 0.00 0.00 0.00 77 1010.9
20260507040415 13 172 33.8 45.1 0.00 0.00 0.00 77 1010.5
20260507035911 13 164 24.1 41.8 0.00 0.00 0.00 77 1010.7
20260507035407 13 173 29.0 45.1 0.00 0.00 0.00 77 1010.4
20260507034904 13 170 32.2 41.8 0.00 0.00 0.00 77 1010.9
20260507034401 13 174 35.4 41.8 0.00 0.00 0.00 78 1010.9
20260507033859 13 173 24.1 38.6 0.00 0.00 0.00 78 1011.1
20260507033357 13 166 27.4 45.1 0.00 0.00 0.00 78 1011.0
20260507032854 13 172 27.4 45.1 0.00 0.00 0.00 78 1011.1
20260507032350 13 183 30.6 41.8 0.00 0.00 0.00 78 1011.3
20260507031846 13 171 30.6 43.5 0.00 0.00 0.00 78 1011.5
20260507031343 13 182 32.2 40.2 0.00 0.00 0.00 78 1011.8
20260507030840 13 198 32.2 49.9 0.00 0.00 0.00 77 1011.8
20260507030338 14 188 30.6 45.1 0.00 0.00 0.00 78 1012.1
20260507025834 14 180 29.0 45.1 0.00 0.00 0.00 77 1012.1
20260507025332 14 192 38.6 45.1 0.00 0.00 0.00 77 1011.9
20260507024829 14 190 37.0 48.3 0.00 0.00 0.00 77 1012.2
20260507024326 14 181 27.4 45.1 0.00 0.00 0.00 77 1012.2
20260507023822 14 197 37.0 43.5 0.00 0.00 0.00 77 1012.3
20260507023319 14 191 32.2 38.6 0.00 0.00 0.00 77 1012.3
20260507022817 15 198 30.6 41.8 0.00 0.00 0.00 76 1012.6
20260507022313 15 187 30.6 41.8 0.00 0.00 0.00 76 1012.5
20260507021809 15 195 32.2 48.3 0.00 0.00 0.00 76 1012.6
20260507021305 15 194 30.6 45.1 0.00 0.00 0.00 76 1012.6
20260507020803 15 177 32.2 43.5 0.00 0.00 0.00 76 1012.7
20260507020259 15 190 20.9 41.8 0.00 0.00 0.00 77 1013.3
20260507015756 15 196 27.4 37.0 0.00 0.00 0.00 77 1013.1
20260507015254 14 190 24.1 35.4 0.00 0.00 0.00 78 1013.1
20260507014751 14 189 20.9 32.2 0.00 0.00 0.00 79 1013.4
20260507014247 14 201 25.7 35.4 0.00 0.00 0.00 78 1013.3
20260507013743 14 185 30.6 38.6 0.00 0.00 0.00 78 1013.4
20260507013241 15 198 32.2 38.6 0.00 0.00 0.00 77 1013.5
20260507012738 15 195 27.4 35.4 0.00 0.00 0.00 77 1013.7
20260507012233 15 201 27.4 41.8 0.00 0.00 0.00 77 1013.6
20260507011732 15 197 27.4 37.0 0.00 0.00 0.00 77 1013.6
20260507011228 15 203 27.4 41.8 0.00 0.00 0.00 77 1013.8
20260507010727 15 194 35.4 38.6 0.00 0.00 0.00 77 1013.5
20260507010223 15 190 17.7 35.4 0.00 0.00 0.00 77 1013.5
20260507005721 15 197 37.0 40.2 0.00 0.00 0.00 76 1013.4
20260507005217 15 201 38.6 48.3 0.00 0.00 0.00 76 1013.5
20260507004714 15 218 30.6 45.1 0.00 0.00 0.00 76 1013.5
20260507004212 15 195 30.6 41.8 0.00 0.00 0.00 76 1013.4
20260507003708 15 196 29.0 38.6 0.00 0.00 0.00 75 1013.5
20260507003203 15 208 33.8 45.1 0.00 0.00 0.00 75 1013.7
20260507002659 15 194 25.7 41.8 0.00 0.00 0.00 75 1013.5
20260507002155 15 215 22.5 43.5 0.00 0.00 0.00 75 1013.3
20260507001652 16 176 40.2 48.3 0.00 0.00 0.00 74 1013.5
20260507001150 16 192 22.5 45.1 0.00 0.00 0.00 74 1013.1
20260507000646 16 201 32.2 41.8 0.00 0.00 0.00 74 1013.2
20260507000141 16 199 37.0 49.9 0.00 0.00 0.00 73 1013.0
20260506235639 16 192 38.6 48.3 0.00 0.00 0.00 73 1012.7
20260506235139 16 203 30.6 51.5 0.00 0.00 0.00 72 1012.7
20260506234637 16 182 35.4 46.7 0.00 0.00 0.00 73 1012.9
20260506234134 16 197 27.4 48.3 0.00 0.00 0.00 72 1013.0
20260506233631 16 202 43.5 46.7 0.00 0.00 0.00 72 1013.1
20260506233128 16 204 37.0 48.3 0.00 0.00 0.00 71 1012.9
20260506232624 16 199 45.1 48.3 0.00 0.00 0.00 71 1012.9
20260506232119 16 203 30.6 41.8 0.00 0.00 0.00 71 1012.9
20260506231617 16 197 35.4 45.1 0.00 0.00 0.00 71 1013.0
20260506231115 16 201 25.7 46.7 0.00 0.00 0.00 70 1012.9
20260506230611 16 210 30.6 40.2 0.00 0.00 0.00 70 1012.8
20260506230109 16 195 38.6 56.3 0.00 0.00 0.00 69 1012.8
20260506225605 16 199 32.2 41.8 0.00 0.00 0.00 69 1012.9
20260506225101 16 199 40.2 49.9 0.00 0.00 0.00 68 1013.0
20260506224558 16 194 37.0 51.5 0.00 0.00 0.00 68 1012.8
20260506224055 16 202 32.2 41.8 0.00 0.00 0.00 68 1012.7
20260506223551 16 199 29.0 43.5 0.00 0.00 0.00 67 1012.7
20260506223047 17 195 33.8 49.9 0.00 0.00 0.00 67 1012.5
20260506222544 17 205 32.2 43.5 0.00 0.00 0.00 66 1012.6
20260506222040 17 188 37.0 51.5 0.00 0.00 0.00 65 1012.8
20260506221538 17 197 29.0 45.1 0.00 0.00 0.00 65 1012.8
20260506221036 17 207 29.0 49.9 0.00 0.00 0.00 64 1012.7
20260506220532 17 196 32.2 45.1 0.00 0.00 0.00 64 1012.5
20260506220027 17 193 32.2 45.1 0.00 0.00 0.00 62 1012.7
20260506215525 18 209 48.3 57.9 0.00 0.00 0.00 61 1012.5
20260506215020 18 202 37.0 49.9 0.00 0.00 0.00 61 1012.5
20260506214518 18 200 20.9 61.2 0.00 0.00 0.00 60 1012.3
20260506214015 18 202 30.6 46.7 0.00 0.00 0.00 60 1012.5
20260506213513 18 201 33.8 48.3 0.00 0.00 0.00 59 1012.5
20260506213009 18 196 27.4 38.6 0.00 0.00 0.00 60 1012.2
20260506212506 18 204 30.6 49.9 0.00 0.00 0.00 60 1012.3
20260506212001 18 201 29.0 51.5 0.00 0.00 0.00 59 1012.2
20260506211457 18 215 32.2 49.9 0.00 0.00 0.00 58 1012.3
20260506210954 18 203 25.7 45.1 0.00 0.00 0.00 59 1012.3
20260506210450 18 202 27.4 38.6 0.00 0.00 0.00 59 1012.5
20260506205948 18 209 24.1 45.1 0.00 0.00 0.00 59 1012.5
20260506205444 18 204 25.7 46.7 0.00 0.00 0.00 59 1012.4
20260506204940 18 203 30.6 40.2 0.00 0.00 0.00 59 1012.3
20260506204438 18 219 30.6 46.7 0.00 0.00 0.00 59 1012.4
20260506203935 18 199 38.6 48.3 0.00 0.00 0.00 58 1012.2
20260506203432 18 202 30.6 41.8 0.00 0.00 0.00 58 1012.3
20260506202929 18 203 32.2 43.5 0.00 0.00 0.00 57 1012.3
20260506202426 18 208 17.7 40.2 0.00 0.00 0.00 57 1012.1
20260506201922 18 207 29.0 51.5 0.00 0.00 0.00 57 1012.1